JST442 YMML-YMAV

Flight info

Callsign JST442
Flight time N/A
Altitude 6000
Route VFR
Aircraft A20N/M-SDE2E3FGHIRWXY/LB1

Departure

Time 2026-04-30 11:16
Airport Melbourne Airport (YMML)

Arrival

Time N/A
Airport Melbourne Avalon International Airport (YMAV)
Time Latitude Longitude Altitude Speed Heading
2026-04-30 10:46 -37.67130 144.84585 391 ft 0 kts 352°
2026-04-30 11:05 -37.67140 144.84587 391 ft 3 kts 352°
2026-04-30 11:06 -37.67159 144.84590 390 ft 3 kts 352°
2026-04-30 11:06 -37.67178 144.84594 390 ft 3 kts 352°
2026-04-30 11:06 -37.67197 144.84597 390 ft 3 kts 352°
2026-04-30 11:06 -37.67214 144.84600 389 ft 3 kts 352°
2026-04-30 11:07 -37.67222 144.84602 389 ft 0 kts 352°
2026-04-30 11:08 -37.67213 144.84599 389 ft 5 kts 346°
2026-04-30 11:08 -37.67206 144.84597 389 ft 2 kts 343°
2026-04-30 11:09 -37.67183 144.84583 390 ft 3 kts 326°
2026-04-30 11:09 -37.67179 144.84579 390 ft 0 kts 323°
2026-04-30 11:09 -37.67177 144.84568 390 ft 12 kts 281°
2026-04-30 11:09 -37.67196 144.84466 388 ft 0 kts 260°
2026-04-30 11:10 -37.67202 144.84420 387 ft 0 kts 262°
2026-04-30 11:10 -37.67206 144.84344 386 ft 17 kts 258°
2026-04-30 11:10 -37.67264 144.84284 384 ft 11 kts 184°
2026-04-30 11:10 -37.67348 144.84299 382 ft 13 kts 170°
2026-04-30 11:11 -37.67444 144.84320 380 ft 15 kts 175°
2026-04-30 11:11 -37.67561 144.84338 377 ft 19 kts 172°
2026-04-30 11:11 -37.67706 144.84365 372 ft 24 kts 172°
2026-04-30 11:11 -37.67778 144.84378 371 ft 0 kts 171°
2026-04-30 11:12 -37.67851 144.84325 364 ft 18 kts 253°
2026-04-30 11:12 -37.67864 144.84202 365 ft 0 kts 261°
2026-04-30 11:12 -37.67864 144.84200 365 ft 1 kts 261°
2026-04-30 11:13 -37.67868 144.84166 364 ft 14 kts 262°
2026-04-30 11:13 -37.67872 144.84136 368 ft 0 kts 261°
2026-04-30 11:15 -37.67872 144.84133 368 ft 1 kts 261°
2026-04-30 11:15 -37.67871 144.84055 366 ft 22 kts 284°
2026-04-30 11:15 -37.67743 144.83943 368 ft 35 kts 352°
2026-04-30 11:16 -37.67109 144.83825 386 ft 145 kts 352°
2026-04-30 11:16 -37.65874 144.83587 750 ft 200 kts 353°
2026-04-30 11:16 -37.64447 144.83333 1293 ft 220 kts 352°
2026-04-30 11:16 -37.62804 144.83062 1823 ft 257 kts 353°
2026-04-30 11:17 -37.60939 144.82779 2572 ft 281 kts 354°
2026-04-30 11:17 -37.58891 144.82842 3162 ft 309 kts
2026-04-30 11:17 -37.56682 144.83342 3572 ft 338 kts 11°
2026-04-30 11:17 -37.54326 144.83954 4391 ft 348 kts 11°
2026-04-30 11:18 -37.52076 144.84543 5097 ft 307 kts 11°
2026-04-30 11:18 -37.48327 144.85527 5609 ft 260 kts 11°
2026-04-30 11:18 -37.46547 144.85885 5863 ft 260 kts
2026-04-30 11:19 -37.44749 144.85687 6119 ft 261 kts 345°
2026-04-30 11:19 -37.43133 144.84690 6366 ft 262 kts 322°
2026-04-30 11:19 -37.42010 144.82887 6628 ft 266 kts 296°
2026-04-30 11:19 -37.41672 144.80595 6811 ft 272 kts 268°
2026-04-30 11:20 -37.42252 144.78323 6914 ft 278 kts 240°
2026-04-30 11:20 -37.43610 144.76584 6662 ft 283 kts 214°
2026-04-30 11:20 -37.45401 144.75551 6247 ft 284 kts 202°
2026-04-30 11:20 -37.47261 144.74720 5757 ft 284 kts 200°
2026-04-30 11:21 -37.49117 144.73894 5402 ft 282 kts 201°
2026-04-30 11:21 -37.50880 144.73083 5326 ft 283 kts 202°
2026-04-30 11:21 -37.52725 144.72212 5317 ft 283 kts 203°
2026-04-30 11:21 -37.54563 144.71329 5336 ft 283 kts 202°
2026-04-30 11:22 -37.56380 144.70447 5180 ft 283 kts 202°
2026-04-30 11:22 -37.58175 144.69381 5003 ft 280 kts 217°
2026-04-30 11:22 -37.59727 144.67966 4996 ft 280 kts 217°
2026-04-30 11:22 -37.61218 144.66644 4992 ft 280 kts 217°
2026-04-30 11:23 -37.62793 144.65261 4990 ft 280 kts 217°
2026-04-30 11:23 -37.64403 144.63883 4987 ft 280 kts 216°
2026-04-30 11:23 -37.67675 144.61205 4997 ft 280 kts 214°
2026-04-30 11:24 -37.69335 144.59915 4995 ft 280 kts 213°
2026-04-30 11:24 -37.70991 144.58677 4986 ft 281 kts 212°
2026-04-30 11:24 -37.72692 144.57460 4982 ft 281 kts 211°
2026-04-30 11:25 -37.76156 144.55174 4987 ft 281 kts 208°
2026-04-30 11:25 -37.77929 144.54105 4391 ft 291 kts 207°
2026-04-30 11:25 -37.81628 144.51973 3310 ft 285 kts 206°
2026-04-30 11:26 -37.85216 144.50243 3314 ft 276 kts 196°
2026-04-30 11:26 -37.87094 144.49762 3381 ft 270 kts 188°
2026-04-30 11:26 -37.88872 144.49519 3428 ft 246 kts 187°
2026-04-30 11:27 -37.90540 144.49265 3469 ft 240 kts 188°
2026-04-30 11:27 -37.92205 144.49100 3521 ft 240 kts 183°
2026-04-30 11:27 -37.93881 144.48900 2969 ft 245 kts 190°
2026-04-30 11:27 -37.95556 144.48509 2471 ft 244 kts 191°
2026-04-30 11:28 -37.98847 144.47698 1044 ft 236 kts 190°
2026-04-30 11:28 -38.00420 144.47390 574 ft 220 kts 188°
2026-04-30 11:28 -38.01885 144.47110 242 ft 208 kts 188°
2026-04-30 11:29 -38.03259 144.46861 44 ft 193 kts 187°
2026-04-30 11:29 -38.04393 144.46665 45 ft 128 kts 189°